Helicity
173 196 221 168 163 129 113 78 98 105 125 117 121 101 76 51 29 62 79 49 73 85 96 87 83 108 145 131 135 100 105 70 69 60 62 65 50 50 48 50 45 34 45 52 47 47 47 62 86 68 80 71 81 79
128 205 241 228 241 184 155 117 85 124 138 123 116 87 65 57 49 72 77 54 68 52 81 61 72 44 65 136 171 138 138 74 73 70 70 61 63 58 54 61 56 46 44 47 32 58 51 75 111 72 46 78 85 49
67 176 250 305 267 229 165 63 89 145 95 101 108 92 94 73 44 67 81 83 97 38 -12 25 45 37 45 64 118 157 105 111 77 82 71 63 59 52 44 33 44 22 23 41 41 34 5 19 34 22 82 89 67 36
-35 66 221 268 322 249 177 154 116 126 83 97 94 89 71 70 53 67 117 119 149 68 -7 1 111 92 139 105 91 90 117 118 97 80 72 58 54 49 53 57 42 54 49 23 30 13 32 31 15 32 68 77 56 33
43 70 192 280 327 268 199 193 157 113 96 90 70 47 45 47 41 100 126 127 135 123 101 67 46 101 123 106 109 55 73 107 87 75 70 53 75 60 51 41 15 58 57 58 34 23 37 41 54 75 55 52 61 34
46 56 171 323 313 272 242 188 140 141 99 85 56 35 56 48 120 123 50 54 74 89 9 -9 1 17 49 6 44 81 74 80 83 55 68 72 81 66 24 21 31 50 62 62 34 71 60 71 36 25 37 50 44 30
105 72 116 350 326 292 215 195 205 134 109 71 49 48 44 57 137 98 -8 -30 26 62 1 4 -26 -23 -10 33 64 78 96 95 74 50 57 66 66 99 86 50 32 50 59 66 76 52 25 55 78 97 64 54 48 42
120 110 118 252 273 249 219 200 181 111 82 62 40 40 43 70 55 -29 -2 -16 -24 42 68 8 37 36 -9 40 80 84 95 96 71 73 80 94 96 116 64 69 52 77 98 81 69 77 62 51 58 80 72 65 55 38
99 90 88 227 291 216 196 227 194 103 68 48 29 35 18 -12 3 -10 38 51 37 26 76 101 53 13 51 53 84 82 96 91 77 77 88 90 107 116 82 44 33 47 63 59 67 53 42 21 28 41 48 55 56 50
130 93 74 161 316 252 223 197 135 100 70 50 39 51 70 1 10 12 24 33 29 34 70 80 56 29 61 80 56 87 68 64 54 60 70 4 -15 108 169 170 137 96 68 59 47 38 55 46 49 56 63 56 57 64
87 48 19 193 192 223 282 155 102 111 106 76 63 42 17 28 34 52 40 11 10 35 19 27 51 89 79 80 66 60 40 61 -2 18 20 -8 50 83 93 104 87 68 45 29 28 30 31 27 36 45 57 54 52 53
45 -10 -48 152 359 214 283 173 108 119 88 66 48 34 40 57 68 65 32 29 23 37 18 28 42 68 64 68 53 68 20 19 3 47 21 -2 37 85 47 39 42 36 33 36 36 38 38 38 38 35 47 61 55 43
-10 -63 -6 268 409 262 140 85 84 76 74 72 69 94 99 99 89 72 12 39 36 29 24 39 40 65 63 63 59 34 21 16 40 3 12 24 55 53 19 14 21 18 16 22 32 36 43 36 41 48 54 64 68 53
-6 -10 508 376 245 166 84 99 87 83 133 125 121 146 148 131 97 64 52 46 50 33 25 60 79 48 49 43 33 10 30 27 9 21 9 18 35 40 24 9 18 0 24 20 26 45 62 58 44 35 40 53 76 78
194 583 403 208 152 131 123 92 86 152 151 162 150 139 134 131 80 93 69 53 68 64 33 65 80 71 76 50 40 43 19 8 -2 2 11 15 40 33 31 20 13 13 7 2 -3 -3 11 22 35 37 58 61 28 15
523 329 242 142 129 148 165 166 169 164 151 155 163 150 141 135 110 68 76 58 67 80 71 77 82 53 44 46 33 23 20 3 24 43 36 54 48 41 43 47 50 45 37 30 22 12 2 1 -5 -17 -27 -13 -6 -3
344 360 92 82 83 129 147 166 164 178 152 180 158 136 104 109 126 83 79 63 61 68 78 90 67 61 55 39 36 42 38 43 48 64 35 29 44 41 58 65 65 65 60 52 39 34 30 32 30 35 44 53 49 38
245 120 139 235 236 226 165 149 126 119 139 138 116 120 96 69 80 115 109 101 91 62 61 89 98 66 52 49 41 42 36 40 43 46 30 39 65 87 78 72 67 60 51 40 29 15 15 32 41 49 63 71 68 80
111 162 123 85 107 133 105 76 74 84 68 84 91 108 106 81 62 66 86 100 102 110 112 98 28 46 88 101 46 66 53 52 72 55 35 47 67 73 83 91 83 78 68 51 48 54 60 59 52 42 32 30 28 38
69 63 68 93 91 70 66 55 75 60 46 68 78 85 82 95 89 87 91 95 96 87 91 54 64 113 51 38 55 80 89 86 114 108 74 76 87 97 84 92 81 66 45 40 39 31 24 20 23 26 23 25 26 29
98 59 56 56 34 41 33 28 41 43 50 59 62 87 92 81 92 103 87 103 111 100 71 64 61 74 82 99 106 93 83 80 82 98 89 102 107 106 108 95 86 69 56 50 38 29 28 25 26 26 27 31 37 38
19 8 8 17 -27 -20 -12 14 -2 24 22 32 32 54 58 64 79 75 88 79 68 67 86 80 76 79 67 58 59 59 77 91 113 112 124 120 123 102 86 86 91 69 63 57 56 47 41 42 38 35 38 41 41 41
6 21 33 28 -15 6 -2 2 -24 -33 -46 -37 -15 4 18 29 44 64 75 62 51 49 76 77 72 73 57 52 55 68 73 101 108 108 113 107 103 105 102 99 89 82 67 56 58 56 58 55 54 51 50 51 52 56
35 22 10 -2 -4 -22 -1 -6 -17 -27 -32 -52 -60 -46 -24 -10 12 27 35 49 69 79 78 64 57 63 73 90 93 87 82 90 103 120 114 121 114 94 90 83 80 74 69 76 68 62 59 58 55 60 61 61 59 59
21 13 8 15 6 9 14 1 -12 -24 -32 -46 -55 -56 -53 -57 -42 -25 -1 26 30 44 31 29 33 36 57 70 79 82 81 97 104 93 94 92 113 118 95 78 68 65 80 79 72 67 63 66 64 66 67 62 56 57
38 27 14 17 17 24 12 20 0 -15 -15 -29 -52 -44 -45 -67 -75 -83 -65 -52 -48 -35 -16 4 4 7 17 25 41 57 59 69 94 85 88 102 97 104 96 89 76 70 77 85 87 76 71 77 78 69 61 48 46 62
56 46 33 31 36 32 37 33 31 20 7 -23 -19 -18 -25 -42 -65 -71 -63 -60 -60 -54 -41 -28 -27 -27 -18 4 -5 -5 25 41 62 61 70 64 75 85 104 91 72 74 91 93 103 100 91 87 81 74 70 70 64 56
75 46 30 28 44 45 55 54 36 16 15 25 37 -11 -23 -34 -14 -1 -38 -6 -18 -15 -24 -30 -25 -19 -5 3 5 20 34 52 72 70 69 72 79 88 87 97 108 103 120 122 114 106 94 85 79 74 72 70 76 75
53 45 67 70 82 79 59 55 56 59 68 89 67 46 32 49 52 28 26 20 30 31 2 -4 8 37 33 55 68 83 114 141 153 117 90 77 95 90 119 112 110 107 112 105 73 79 78 78 79 78 77 89 94 94
38 74 81 87 95 68 61 81 93 114 116 126 119 108 96 74 50 72 75 72 58 51 63 62 66 123 95 99 84 93 124 151 167 170 148 118 108 126 121 112 103 111 119 110 99 99 97 107 115 134 130 117 106 105
92 135 132 126 100 105 144 160 162 162 174 163 175 149 122 72 68 79 136 141 127 138 103 64 97 137 129 129 137 108 82 116 146 146 184 189 159 134 119 104 93 103 112 113 110 108 107 119 122 116 113 108 101 99
103 116 135 142 140 168 199 227 221 218 206 195 177 198 200 180 59 -24 50 137 164 151 100 98 77 61 72 100 116 110 128 117 116 126 134 137 114 96 89 87 98 109 109 114 121 121 119 112 114 122 125 110 99 77
129 137 143 168 168 168 153 168 183 170 167 165 155 156 178 125 24 27 83 152 170 164 114 72 51 76 85 88 85 109 121 133 123 102 79 67 51 57 81 104 112 120 126 134 137 146 138 127 113 91 77 69 54 34
Wind_Speed
22 28 27 29 33 37 37 37 38 39 42 43 42 41 41 42 34 37 44 41 45 52 59 51 44 41 40 39 21 24 21 30 31 27 28 31 34 30 35 36 35 33 39 44 43 48 54 33 27 34 34 33 36 40
29 25 21 26 32 37 37 39 36 40 42 42 41 41 45 36 39 28 42 42 41 51 57 58 64 61 59 57 46 36 36 28 23 31 34 31 32 31 35 39 32 39 36 37 37 41 38 33 33 37 39 47 50 43
27 26 23 23 26 34 35 38 36 37 38 38 41 41 46 32 36 25 39 40 46 59 73 57 59 67 56 57 47 43 42 37 33 35 34 35 36 31 35 41 35 38 35 41 39 41 48 46 44 38 42 41 41 41
39 33 28 28 23 27 28 33 30 30 33 39 39 43 44 33 35 33 41 36 41 52 58 61 52 52 47 52 49 46 46 39 38 36 38 39 41 34 40 40 39 37 27 43 54 55 51 52 44 35 41 43 44 43
44 36 29 27 27 27 25 28 29 28 37 41 46 43 37 39 36 40 43 39 30 37 52 68 74 66 57 48 48 48 50 46 42 39 41 43 34 35 42 46 51 40 42 44 53 46 44 37 32 37 53 52 50 47
54 45 38 35 33 28 26 25 22 30 40 43 43 44 37 38 38 45 51 33 12 9 35 40 37 32 24 37 51 45 45 46 47 41 39 42 36 36 47 50 44 43 43 46 52 45 49 53 46 40 50 53 50 49
67 59 50 43 38 31 28 24 26 34 39 45 44 38 41 34 29 24 25 29 28 21 27 35 33 9 24 38 48 40 48 44 45 44 40 40 38 35 54 62 51 46 40 42 45 47 51 45 47 54 54 53 50 48
75 69 58 49 40 36 30 21 23 34 39 41 37 43 43 34 17 11 12 32 41 39 28 32 27 44 64 58 41 46 38 39 43 42 39 42 39 34 62 50 54 46 44 46 44 45 50 55 58 57 54 52 53 54
77 74 62 48 41 35 28 19 28 30 33 31 36 38 26 22 17 19 47 48 43 41 31 34 36 43 44 39 26 42 37 40 38 42 34 31 35 47 55 47 43 40 45 43 47 52 57 58 60 59 57 58 59 58
86 77 70 53 45 31 25 22 26 24 24 28 25 28 29 16 24 18 32 43 42 42 41 38 34 42 40 42 35 30 37 35 36 33 32 54 62 57 42 40 34 36 40 42 53 56 51 56 59 61 61 61 62 61
79 73 66 41 37 32 23 30 21 19 22 27 21 30 18 32 34 40 27 32 43 41 43 41 39 34 31 32 29 30 36 36 47 44 47 47 39 27 28 31 35 37 40 42 45 48 49 52 56 61 64 62 63 62
64 63 49 36 35 34 31 23 9 18 27 22 19 22 26 32 32 29 24 42 43 42 41 42 43 35 29 27 28 32 41 39 43 31 42 47 32 23 25 25 29 33 37 38 38 42 44 45 47 49 52 57 57 57
53 49 32 37 39 36 24 12 7 13 13 25 27 33 31 35 42 41 21 38 41 36 33 32 26 35 33 33 32 35 37 41 31 39 44 43 23 20 23 25 26 30 30 31 33 36 38 41 42 43 45 45 46 44
73 60 36 34 30 23 17 11 6 6 26 27 30 45 45 49 50 43 45 42 36 34 29 24 21 37 36 33 32 32 33 31 37 40 40 28 21 16 22 24 27 26 27 29 30 30 34 36 38 40 40 40 39 37
25 29 33 31 24 14 6 13 8 21 22 28 32 48 54 47 45 43 39 36 36 35 30 27 31 33 33 33 34 33 35 38 38 37 35 22 20 21 21 19 22 26 28 30 32 34 35 36 37 37 37 37 37 36
34 28 21 26 15 7 9 6 20 23 23 28 39 46 45 49 51 44 41 41 37 36 33 32 32 31 31 26 29 31 33 36 36 33 29 17 15 16 18 20 23 27 32 35 37 39 40 41 41 41 41 41 40 41
21 41 30 23 19 15 8 24 24 22 23 28 42 43 44 44 51 50 42 39 34 36 43 36 35 34 25 34 35 31 38 37 35 35 22 15 11 11 16 22 26 30 35 39 41 44 46 46 46 47 48 49 48 46
11 27 28 22 9 11 25 25 21 21 34 31 44 42 44 45 45 46 46 41 39 35 35 43 32 45 46 44 41 38 34 33 32 27 20 18 18 19 22 27 30 34 40 44 46 47 48 50 51 52 54 55 54 51
21 26 24 13 9 18 24 24 23 31 30 33 41 41 40 45 46 45 45 44 41 38 38 43 59 59 55 47 47 42 21 22 32 26 23 21 19 21 24 30 33 38 43 44 47 49 50 50 49 50 52 52 51 50
30 19 8 5 15 19 22 25 21 27 36 36 40 41 42 45 44 47 47 47 47 48 56 63 65 53 50 52 47 44 40 28 28 18 12 16 20 15 16 23 31 36 38 36 39 41 44 46 45 49 50 51 50 51
9 8 8 13 17 21 22 22 21 27 30 36 37 40 42 45 48 47 49 46 53 60 65 64 66 61 51 48 47 48 48 33 25 27 25 14 16 19 19 24 29 32 35 39 41 43 45 46 47 49 49 50 51 52
4 6 11 16 20 21 23 25 24 24 27 30 31 34 37 43 49 53 51 55 56 56 55 58 60 57 57 60 57 50 48 37 33 33 31 28 23 21 21 23 25 28 30 34 37 42 44 45 47 47 48 51 53 53
6 17 18 20 20 23 23 23 24 25 25 26 27 29 31 33 36 39 48 52 56 53 55 57 57 54 57 55 51 48 43 35 33 32 31 32 33 31 32 30 30 34 38 41 39 41 46 48 49 50 48 51 53 55
16 19 19 21 23 21 22 24 24 25 25 26 26 26 27 29 32 35 41 42 44 45 50 55 56 59 56 53 52 49 41 33 33 33 32 30 32 32 31 33 34 37 40 45 46 48 50 51 49 49 52 56 57 59
20 23 23 22 22 21 22 22 25 26 27 28 29 29 30 30 29 29 31 35 38 43 46 45 47 46 50 50 49 48 41 35 33 34 33 30 33 35 35 37 40 41 42 47 50 50 51 50 49 51 54 57 60 63
25 25 23 20 21 24 23 27 29 31 33 34 35 34 33 32 31 31 32 34 34 36 37 37 36 35 37 36 38 39 39 29 29 33 36 29 29 34 38 42 47 50 42 42 46 48 49 49 52 56 59 60 61 64
30 27 26 27 25 24 28 30 32 35 39 40 38 36 37 39 37 36 37 37 38 40 40 40 39 38 38 37 36 35 35 27 28 33 36 33 30 31 34 41 48 50 44 43 43 46 52 55 57 59 63 64 65 67
34 32 34 31 34 34 35 36 37 40 39 34 35 44 44 42 43 40 42 43 43 45 47 47 46 46 46 45 44 41 38 34 33 38 41 42 39 38 39 43 44 47 46 43 44 47 48 52 57 61 65 69 72 68
38 35 34 39 40 40 41 40 44 42 37 35 47 52 53 45 47 51 52 52 52 55 61 61 58 51 52 49 47 43 38 33 34 39 41 44 45 45 40 42 46 46 43 44 45 47 51 56 59 62 64 67 69 68
41 31 40 43 45 47 46 39 49 48 45 48 54 61 65 66 66 60 64 69 75 79 78 74 68 61 65 62 61 53 43 38 37 38 45 47 49 46 42 44 46 43 43 48 53 56 58 61 64 65 68 71 71 71
38 36 47 50 56 55 56 57 58 60 61 64 65 74 85 86 85 80 78 79 78 79 81 84 79 69 66 63 59 60 59 46 36 35 39 45 47 47 45 44 46 47 49 51 55 59 63 65 67 69 68 69 70 69
42 45 52 61 64 59 59 61 63 66 67 71 75 72 79 85 98 93 75 69 71 79 82 76 76 75 61 58 51 44 45 45 44 42 38 38 41 41 42 45 48 49 50 53 57 60 61 62 64 63 61 60 60 58
50 52 55 61 64 65 59 59 64 70 72 79 83 80 82 87 98 90 79 75 78 75 69 65 62 55 51 48 40 33 34 35 35 35 35 36 39 44 46 46 47 49 51 54 55 56 57 55 52 50 48 46 45 42
Wind_Direction
332 332 331 331 335 337 335 337 337 340 345 347 349 351 351 350 353 346 327 320 306 289 286 288 288 282 282 281 297 300 301 290 286 295 300 296 288 291 286 282 282 277 272 270 269 268 264 288 290 278 286 296 297 289
335 339 337 330 329 332 333 330 331 334 340 341 344 345 343 347 347 348 326 319 314 295 286 290 281 275 269 266 273 277 283 294 295 285 285 294 291 289 285 284 284 280 280 283 277 281 289 290 285 288 290 278 276 279
334 325 326 327 329 330 328 326 325 332 337 339 340 341 341 345 345 345 326 325 313 299 290 290 284 277 269 259 264 271 268 278 283 279 279 281 285 289 285 281 287 283 281 282 285 285 275 273 280 289 285 285 281 285
326 325 317 317 315 324 320 324 324 328 334 336 337 336 335 342 343 338 323 325 314 306 302 297 294 286 273 259 249 251 264 274 275 276 275 277 276 288 284 288 285 289 297 279 271 270 272 271 283 286 285 282 286 288
324 320 304 304 305 306 315 316 317 323 328 332 332 333 337 338 341 334 325 318 311 309 307 302 299 286 266 249 242 246 251 259 263 270 273 272 289 292 290 288 282 284 283 281 278 283 281 282 292 288 269 276 282 284
319 310 297 290 293 294 304 309 311 319 322 327 329 331 338 341 343 335 328 345 331 3 338 339 337 313 267 234 234 239 243 252 258 268 277 277 290 291 283 282 295 290 285 286 279 287 279 276 285 294 280 279 282 281
315 308 295 285 285 286 292 292 305 310 318 320 326 335 336 340 341 340 357 18 70 73 13 2 7 11 205 222 228 239 236 250 258 268 277 280 290 296 283 279 295 289 293 293 289 286 282 284 281 281 279 280 282 283
312 309 296 283 277 278 282 283 299 305 311 318 333 334 337 353 13 41 76 123 138 157 151 45 120 174 177 187 220 228 240 253 260 270 281 283 293 304 280 295 288 290 290 288 288 288 285 281 279 281 281 281 280 278
309 306 298 274 265 267 258 260 285 301 314 327 334 342 12 8 16 353 169 158 195 175 171 170 180 198 198 215 236 228 243 255 266 273 290 303 299 290 285 290 291 292 287 290 290 287 283 282 280 281 281 276 275 276
304 300 298 269 254 252 238 253 275 300 316 326 349 335 309 350 262 272 220 192 192 188 188 181 194 201 211 215 233 244 251 267 277 290 297 256 245 277 298 301 303 300 299 298 287 284 289 286 283 280 278 275 273 274
300 298 292 254 238 210 219 246 276 294 310 309 329 296 334 252 242 232 274 200 210 209 193 199 214 217 243 242 254 260 251 257 241 262 258 259 317 331 322 311 304 303 301 301 300 299 298 294 289 283 279 277 274 273
294 293 283 233 202 213 228 239 247 285 290 302 336 325 283 258 265 276 285 238 234 231 220 217 218 234 250 260 264 261 248 256 251 296 277 260 322 8 353 333 317 312 308 308 308 305 302 301 300 298 292 283 279 277
298 288 263 184 201 215 221 224 193 287 296 298 294 276 264 258 255 257 276 252 244 251 254 251 259 237 245 248 254 252 258 259 294 274 254 261 1 26 352 342 344 331 334 328 318 310 305 303 304 306 302 297 292 287
222 199 158 174 185 194 220 173 183 267 275 283 273 255 251 246 246 252 250 251 256 258 260 267 270 237 235 247 255 265 275 290 277 269 268 337 70 13 350 6 42 355 344 347 332 314 321 322 316 309 305 306 304 301
223 164 150 158 183 168 199 158 221 266 282 282 276 255 250 253 253 253 260 259 257 253 262 262 262 257 256 262 264 272 275 277 279 286 301 360 66 71 46 356 346 353 333 330 324 323 320 316 318 322 321 317 315 312
137 141 187 142 153 179 161 205 261 276 295 297 277 264 263 251 246 252 256 252 251 254 262 260 265 274 277 294 288 285 292 288 296 317 335 27 61 55 41 16 2 337 318 316 321 319 317 317 316 318 318 319 314 311
191 210 133 127 130 134 210 261 271 288 295 303 278 271 266 260 248 248 254 255 258 257 251 263 266 272 296 281 285 301 297 305 317 320 360 33 35 8 345 335 332 331 330 328 326 321 318 318 319 316 313 314 311 315
187 117 117 121 156 247 258 273 294 303 290 295 272 271 264 261 255 253 253 257 260 266 267 260 279 256 259 270 289 301 312 319 326 334 340 336 331 325 320 319 322 324 322 322 320 319 319 319 318 316 313 310 308 310
120 115 112 114 256 273 283 287 312 304 297 292 273 272 272 262 260 259 258 260 264 269 272 268 242 252 268 285 286 301 339 337 321 327 328 328 326 321 317 318 320 320 321 322 319 316 316 318 320 321 318 317 315 315
101 98 84 291 293 311 311 315 327 315 289 284 274 271 272 264 263 258 258 259 261 262 256 249 254 274 279 277 286 296 310 322 320 344 359 341 331 346 338 330 324 320 323 329 329 327 320 319 322 317 316 316 316 314
90 50 342 296 319 336 340 343 340 318 301 285 280 275 274 266 260 260 259 264 260 258 257 265 264 269 283 290 294 295 292 309 317 318 326 330 331 334 340 333 329 327 324 320 320 320 319 320 321 321 323 321 319 316
290 307 304 308 3 350 347 323 334 330 310 298 293 288 281 271 262 260 264 261 266 269 270 272 273 280 282 282 285 289 292 300 304 308 312 317 320 323 326 329 331 330 329 327 326 323 323 325 325 326 325 322 321 320
305 274 289 289 347 313 298 303 308 312 320 317 315 298 290 284 278 274 267 269 270 278 278 280 282 285 283 285 289 290 293 296 298 300 304 308 310 313 314 316 318 318 318 319 322 323 321 322 322 322 324 324 322 320
291 299 309 316 320 337 307 303 311 309 310 310 315 313 309 301 295 284 276 280 280 286 286 285 284 282 284 285 285 288 292 297 299 302 304 306 308 310 313 314 315 315 316 316 316 315 316 317 319 320 320 319 318 316
327 322 319 334 329 318 312 308 306 303 295 292 300 306 308 308 306 300 295 295 298 296 295 296 297 292 286 287 288 289 292 292 293 296 300 304 307 310 311 312 312 313 316 315 314 313 314 316 316 317 317 317 315 314
312 314 330 342 337 325 319 306 308 306 306 297 293 302 312 304 299 297 308 311 312 314 315 316 317 315 307 303 301 301 302 302 300 299 302 300 301 305 308 310 311 312 317 316 315 314 314 315 315 315 315 315 315 314
298 304 306 307 320 324 320 319 318 310 303 296 302 302 300 292 289 296 308 310 312 314 314 313 314 313 314 315 312 310 314 316 311 309 309 309 307 308 310 312 312 315 320 319 316 315 314 314 314 315 314 314 313 312
298 299 299 304 306 308 309 310 310 307 307 311 307 292 291 293 293 308 313 320 319 318 314 312 310 307 305 304 305 309 312 315 312 310 309 309 311 311 310 312 314 318 320 319 318 317 318 317 317 316 314 312 312 313
298 304 306 301 301 302 301 301 300 302 307 303 297 293 293 304 307 306 309 313 315 311 304 301 303 309 307 308 307 308 310 311 310 307 307 309 312 313 315 315 316 317 318 318 318 318 318 316 316 315 314 314 314 314
303 308 305 302 300 299 302 301 300 302 302 299 298 295 293 293 297 303 303 300 297 294 294 296 299 302 300 301 299 302 304 303 302 302 305 307 311 317 319 320 321 321 321 319 317 318 318 317 316 314 313 313 313 312
313 309 304 302 300 301 301 300 298 297 296 294 293 290 288 290 291 293 294 294 295 294 291 288 290 296 297 299 298 298 299 304 301 300 303 307 311 314 317 320 321 321 320 319 319 318 318 318 316 315 314 314 314 314
313 306 303 300 300 304 304 300 299 294 294 293 292 294 294 292 285 287 293 294 295 292 287 286 283 287 296 298 301 304 306 309 310 311 312 313 315 319 321 321 322 322 322 321 320 319 319 319 319 319 318 318 319 319
313 312 311 310 306 303 300 300 299 296 294 292 291 292 292 289 283 284 288 287 286 288 285 284 286 293 297 299 304 309 313 318 321 323 325 326 326 324 325 326 327 325 324 323 323 323 322 323 323 325 326 328 329 330